Time,TemperatureF,DewpointF,PressureIn,WindDirection,WindDirectionDegrees,WindSpeedMPH,WindSpeedGustMPH,Humidity,HourlyPrecipIn,Conditions,Clouds,dailyrainin,SoftwareType,DateUTC
2013-04-15 00:03:00,48.0,44.0,29.99,SSE,148,5.0,11.0,86,0.00,,,0.00,,2013-04-15 04:03:00,
2013-04-15 00:13:00,48.0,44.0,29.99,SSE,148,5.0,11.0,86,0.00,,,0.00,,2013-04-15 04:13:00,
2013-04-15 00:23:00,47.0,44.0,30.01,SE,142,6.0,12.0,89,0.00,,,0.00,,2013-04-15 04:23:00,
2013-04-15 00:33:00,47.0,45.0,30.00,SE,139,4.0,13.0,93,0.00,,,0.00,,2013-04-15 04:33:00,
2013-04-15 00:43:00,47.0,45.0,30.00,SE,139,4.0,13.0,93,0.00,,,0.00,,2013-04-15 04:43:00,
2013-04-15 00:53:00,46.0,45.0,29.98,SE,131,1.0,8.0,95,0.01,,,0.01,,2013-04-15 04:53:00,
2013-04-15 01:03:00,46.0,45.0,29.98,SE,125,2.0,8.0,96,0.01,,,0.01,,2013-04-15 05:03:00,
2013-04-15 01:13:00,46.0,45.0,29.98,SE,125,2.0,8.0,96,0.01,,,0.01,,2013-04-15 05:13:00,
2013-04-15 01:23:00,46.0,45.0,29.98,East,93,4.0,10.0,97,0.01,,,0.01,,2013-04-15 05:23:00,
2013-04-15 01:33:00,46.0,45.0,29.97,ESE,111,6.0,10.0,97,0.03,,,0.03,,2013-04-15 05:33:00,
2013-04-15 01:42:00,46.0,45.0,29.97,ESE,111,6.0,10.0,97,0.03,,,0.03,,2013-04-15 05:42:00,
2013-04-15 01:53:00,46.0,45.0,29.97,ESE,104,5.0,11.0,97,0.04,,,0.05,,2013-04-15 05:53:00,
2013-04-15 02:02:00,46.0,45.0,29.98,East,84,3.0,9.0,97,0.05,,,0.06,,2013-04-15 06:02:00,
2013-04-15 02:12:00,46.0,45.0,29.98,East,84,3.0,9.0,97,0.05,,,0.06,,2013-04-15 06:12:00,
2013-04-15 02:23:00,47.0,46.0,29.97,ESE,109,5.0,13.0,98,0.06,,,0.07,,2013-04-15 06:23:00,
2013-04-15 02:33:00,47.0,46.0,29.97,ESE,119,2.0,10.0,98,0.04,,,0.07,,2013-04-15 06:33:00,
2013-04-15 02:42:00,47.0,46.0,29.97,ESE,119,2.0,10.0,98,0.04,,,0.07,,2013-04-15 06:42:00,
2013-04-15 02:53:00,47.0,46.0,29.97,ESE,118,1.0,9.0,98,0.03,,,0.08,,2013-04-15 06:53:00,
2013-04-15 03:03:00,46.0,45.0,29.96,NNE,23,2.0,9.0,98,0.03,,,0.09,,2013-04-15 07:03:00,
2013-04-15 03:41:00,46.0,45.0,29.96,NNE,23,2.0,9.0,98,0.03,,,0.09,,2013-04-15 07:41:00,
2013-04-15 03:54:00,46.0,45.0,29.96,NNE,30,1.0,7.0,98,0.05,,,0.13,,2013-04-15 07:54:00,
2013-04-15 04:03:00,46.0,45.0,29.96,NE,36,1.0,5.0,98,0.06,,,0.15,,2013-04-15 08:03:00,
2013-04-15 04:13:00,46.0,45.0,29.96,NE,36,1.0,5.0,98,0.06,,,0.15,,2013-04-15 08:13:00,
2013-04-15 04:22:00,46.0,45.0,29.96,NE,47,1.0,6.0,98,0.04,,,0.15,,2013-04-15 08:22:00,
2013-04-15 04:34:00,46.0,45.0,29.96,ENE,63,2.0,8.0,98,0.04,,,0.16,,2013-04-15 08:34:00,
2013-04-15 04:42:00,46.0,45.0,29.96,ENE,63,2.0,8.0,98,0.04,,,0.16,,2013-04-15 08:42:00,
2013-04-15 04:52:00,46.0,45.0,29.96,ENE,71,1.0,5.0,98,0.04,,,0.17,,2013-04-15 08:52:00,
2013-04-15 05:03:00,46.0,45.0,29.96,ENE,74,1.0,6.0,98,0.03,,,0.18,,2013-04-15 09:03:00,
2013-04-15 05:12:00,46.0,45.0,29.96,ENE,74,1.0,6.0,98,0.03,,,0.18,,2013-04-15 09:12:00,
2013-04-15 05:23:00,46.0,45.0,29.97,NNE,17,2.0,6.0,98,0.04,,,0.19,,2013-04-15 09:23:00,
2013-04-15 05:33:00,46.0,45.0,29.97,NNE,30,1.0,7.0,98,0.03,,,0.19,,2013-04-15 09:33:00,
2013-04-15 05:43:00,46.0,45.0,29.97,NNE,30,1.0,7.0,98,0.03,,,0.19,,2013-04-15 09:43:00,
2013-04-15 05:53:00,46.0,45.0,29.97,NNE,25,1.0,6.0,98,0.02,,,0.19,,2013-04-15 09:53:00,
2013-04-15 06:03:00,46.0,46.0,29.98,East,98,1.0,7.0,99,0.02,,,0.20,,2013-04-15 10:03:00,
2013-04-15 06:13:00,46.0,46.0,29.98,East,98,1.0,7.0,99,0.02,,,0.20,,2013-04-15 10:13:00,
2013-04-15 06:23:00,46.0,45.0,29.98,NNE,23,1.0,10.0,98,0.01,,,0.20,,2013-04-15 10:23:00,
2013-04-15 06:33:00,46.0,46.0,29.98,ESE,117,1.0,7.0,99,0.02,,,0.21,,2013-04-15 10:33:00,
2013-04-15 06:42:00,46.0,46.0,29.98,ESE,117,1.0,7.0,99,0.02,,,0.21,,2013-04-15 10:42:00,
2013-04-15 06:53:00,46.0,46.0,29.99,NNE,16,3.0,7.0,99,0.01,,,0.21,,2013-04-15 10:53:00,
2013-04-15 07:03:00,47.0,47.0,29.99,NNE,17,2.0,7.0,99,0.01,,,0.21,,2013-04-15 11:03:00,
2013-04-15 07:13:00,47.0,47.0,29.99,NNE,17,2.0,7.0,99,0.01,,,0.21,,2013-04-15 11:13:00,
2013-04-15 07:23:00,47.0,47.0,30.00,NNE,32,4.0,6.0,99,0.01,,,0.21,,2013-04-15 11:23:00,
2013-04-15 07:32:00,47.0,47.0,30.00,North,360,1.0,7.0,99,0.01,,,0.22,,2013-04-15 11:32:00,
2013-04-15 07:43:00,47.0,47.0,30.00,North,360,1.0,7.0,99,0.01,,,0.22,,2013-04-15 11:43:00,
2013-04-15 07:54:00,47.0,47.0,30.01,NE,42,2.0,6.0,99,0.01,,,0.22,,2013-04-15 11:54:00,
2013-04-15 08:04:00,47.0,47.0,30.01,NNE,27,2.0,7.0,99,0.01,,,0.22,,2013-04-15 12:04:00,
2013-04-15 08:14:00,47.0,47.0,30.01,NNE,27,2.0,7.0,99,0.01,,,0.22,,2013-04-15 12:14:00,
2013-04-15 08:23:00,47.0,47.0,30.02,NNE,27,3.0,6.0,99,0.01,,,0.22,,2013-04-15 12:23:00,
2013-04-15 08:33:00,47.0,47.0,30.03,NE,35,1.0,7.0,99,0.00,,,0.22,,2013-04-15 12:33:00,
2013-04-15 08:43:00,47.0,47.0,30.03,NE,35,1.0,7.0,99,0.00,,,0.22,,2013-04-15 12:43:00,
2013-04-15 08:53:00,47.0,47.0,30.03,North,9,1.0,6.0,99,0.01,,,0.23,,2013-04-15 12:53:00,
2013-04-15 09:04:00,47.0,47.0,30.03,North,350,0.0,7.0,99,0.01,,,0.23,,2013-04-15 13:04:00,
2013-04-15 09:13:00,47.0,47.0,30.03,North,350,0.0,7.0,99,0.01,,,0.23,,2013-04-15 13:13:00,
2013-04-15 09:23:00,47.0,47.0,30.03,NE,51,0.0,5.0,99,0.01,,,0.23,,2013-04-15 13:23:00,
2013-04-15 09:33:00,47.0,47.0,30.04,NE,50,1.0,7.0,99,0.01,,,0.23,,2013-04-15 13:33:00,
2013-04-15 09:43:00,47.0,47.0,30.04,NE,50,1.0,7.0,99,0.01,,,0.23,,2013-04-15 13:43:00,
2013-04-15 10:05:00,48.0,48.0,30.05,NNE,29,0.0,3.0,99,0.00,,,0.23,,2013-04-15 14:05:00,
2013-04-15 10:13:00,48.0,48.0,30.05,NNE,29,0.0,3.0,99,0.00,,,0.23,,2013-04-15 14:13:00,
2013-04-15 10:23:00,48.0,48.0,30.06,NNE,12,0.0,6.0,99,0.00,,,0.23,,2013-04-15 14:23:00,
2013-04-15 10:33:00,48.0,48.0,30.05,ENE,66,1.0,4.0,99,0.00,,,0.23,,2013-04-15 14:33:00,
2013-04-15 10:44:00,48.0,48.0,30.05,ENE,66,1.0,4.0,99,0.00,,,0.23,,2013-04-15 14:44:00,
2013-04-15 10:55:00,48.0,48.0,30.05,ENE,57,1.0,4.0,99,0.00,,,0.23,,2013-04-15 14:55:00,
2013-04-15 11:03:00,49.0,49.0,30.06,ENE,71,0.0,4.0,99,0.00,,,0.23,,2013-04-15 15:03:00,
2013-04-15 11:13:00,49.0,49.0,30.06,ENE,71,0.0,4.0,99,0.00,,,0.23,,2013-04-15 15:13:00,
2013-04-15 11:24:00,49.0,49.0,30.06,East,84,0.0,5.0,99,0.00,,,0.23,,2013-04-15 15:24:00,
2013-04-15 11:35:00,50.0,50.0,30.07,NNE,23,1.0,5.0,99,0.00,,,0.23,,2013-04-15 15:35:00,
2013-04-15 11:44:00,50.0,50.0,30.07,NNE,23,1.0,5.0,99,0.00,,,0.23,,2013-04-15 15:44:00,
2013-04-15 11:55:00,51.0,51.0,30.07,NNE,14,0.0,4.0,99,0.00,,,0.23,,2013-04-15 15:55:00,
2013-04-15 12:05:00,51.0,51.0,30.07,North,9,0.0,3.0,99,0.00,,,0.23,,2013-04-15 16:05:00,
2013-04-15 12:14:00,51.0,51.0,30.07,North,9,0.0,3.0,99,0.00,,,0.23,,2013-04-15 16:14:00,
2013-04-15 12:25:00,51.0,51.0,30.08,East,83,0.0,5.0,99,0.00,,,0.23,,2013-04-15 16:25:00,
2013-04-15 12:33:00,52.0,52.0,30.09,ESE,119,1.0,4.0,99,0.00,,,0.23,,2013-04-15 16:33:00,
2013-04-15 12:44:00,52.0,52.0,30.09,ESE,119,1.0,4.0,99,0.00,,,0.23,,2013-04-15 16:44:00,
2013-04-15 12:54:00,52.0,52.0,30.09,NE,45,1.0,4.0,99,0.00,,,0.23,,2013-04-15 16:54:00,
2013-04-15 13:04:00,52.0,52.0,30.09,ESE,107,0.0,4.0,99,0.00,,,0.23,,2013-04-15 17:04:00,
2013-04-15 13:15:00,52.0,52.0,30.09,ESE,107,0.0,4.0,99,0.00,,,0.23,,2013-04-15 17:15:00,
2013-04-15 13:22:00,53.0,53.0,30.09,ESE,113,0.0,5.0,99,0.00,,,0.23,,2013-04-15 17:22:00,
2013-04-15 13:33:00,53.0,53.0,30.09,South,173,0.0,3.0,99,0.00,,,0.23,,2013-04-15 17:33:00,
2013-04-15 13:43:00,53.0,53.0,30.09,South,173,0.0,3.0,99,0.00,,,0.23,,2013-04-15 17:43:00,
2013-04-15 13:53:00,52.0,52.0,30.09,South,171,0.0,1.0,99,0.00,,,0.23,,2013-04-15 17:53:00,
2013-04-15 14:03:00,53.0,53.0,30.09,ESE,109,0.0,4.0,99,0.00,,,0.23,,2013-04-15 18:03:00,
2013-04-15 14:13:00,53.0,53.0,30.09,ESE,109,0.0,4.0,99,0.00,,,0.23,,2013-04-15 18:13:00,
2013-04-15 14:24:00,53.0,53.0,30.09,East,101,1.0,4.0,99,0.00,,,0.23,,2013-04-15 18:24:00,
2013-04-15 14:33:00,53.0,53.0,30.10,ESE,115,0.0,3.0,99,0.00,,,0.23,,2013-04-15 18:33:00,
2013-04-15 14:42:00,53.0,53.0,30.10,ESE,115,0.0,3.0,99,0.00,,,0.23,,2013-04-15 18:42:00,
2013-04-15 14:52:00,53.0,53.0,30.10,East,94,1.0,4.0,99,0.00,,,0.23,,2013-04-15 18:52:00,
2013-04-15 15:02:00,53.0,53.0,30.11,East,81,0.0,2.0,99,0.00,,,0.23,,2013-04-15 19:02:00,
2013-04-15 15:12:00,53.0,53.0,30.11,East,81,0.0,2.0,99,0.00,,,0.23,,2013-04-15 19:12:00,
2013-04-15 15:22:00,53.0,53.0,30.11,ENE,67,0.0,0.0,99,0.00,,,0.23,,2013-04-15 19:22:00,
2013-04-15 15:38:00,53.0,53.0,30.10,East,96,0.0,2.0,99,0.00,,,0.23,,2013-04-15 19:38:00,
2013-04-15 15:54:00,53.0,53.0,30.10,East,96,0.0,2.0,99,0.00,,,0.23,,2013-04-15 19:54:00,
2013-04-15 16:01:00,53.0,53.0,30.10,East,92,0.0,7.0,99,0.00,,,0.23,,2013-04-15 20:01:00,
2013-04-15 16:02:00,53.0,53.0,30.09,East,88,0.0,8.0,99,0.00,,,0.23,,2013-04-15 20:02:00,
2013-04-15 16:11:00,53.0,53.0,30.09,East,88,0.0,8.0,99,0.00,,,0.23,,2013-04-15 20:11:00,
2013-04-15 16:22:00,53.0,53.0,30.10,ESE,105,0.0,7.0,99,0.00,,,0.23,,2013-04-15 20:22:00,
2013-04-15 16:32:00,53.0,53.0,30.10,North,360,0.0,5.0,99,0.00,,,0.23,,2013-04-15 20:32:00,
2013-04-15 16:42:00,53.0,53.0,30.10,North,360,0.0,5.0,99,0.00,,,0.23,,2013-04-15 20:42:00,
2013-04-15 16:52:00,52.0,52.0,30.10,East,83,1.0,8.0,99,0.01,,,0.24,,2013-04-15 20:52:00,
2013-04-15 17:02:00,52.0,52.0,30.10,NW,319,0.0,6.0,99,0.01,,,0.24,,2013-04-15 21:02:00,
2013-04-15 17:12:00,52.0,52.0,30.10,NW,319,0.0,6.0,99,0.01,,,0.24,,2013-04-15 21:12:00,
2013-04-15 17:22:00,52.0,52.0,30.10,ENE,64,0.0,3.0,99,0.01,,,0.24,,2013-04-15 21:22:00,
2013-04-15 17:33:00,52.0,52.0,30.11,ESE,118,1.0,6.0,99,0.01,,,0.24,,2013-04-15 21:33:00,
2013-04-15 17:43:00,52.0,52.0,30.11,ESE,118,1.0,6.0,99,0.01,,,0.24,,2013-04-15 21:43:00,
2013-04-15 17:53:00,52.0,52.0,30.11,East,88,0.0,2.0,99,0.00,,,0.24,,2013-04-15 21:53:00,
2013-04-15 18:02:00,51.0,51.0,30.11,ESE,103,0.0,7.0,99,0.00,,,0.24,,2013-04-15 22:02:00,
2013-04-15 18:13:00,51.0,51.0,30.11,ESE,103,0.0,7.0,99,0.00,,,0.24,,2013-04-15 22:13:00,
2013-04-15 18:23:00,51.0,51.0,30.11,ESE,111,0.0,5.0,99,0.00,,,0.24,,2013-04-15 22:23:00,
2013-04-15 18:33:00,51.0,51.0,30.12,East,99,0.0,5.0,99,0.00,,,0.24,,2013-04-15 22:33:00,
2013-04-15 18:42:00,51.0,51.0,30.12,East,99,0.0,5.0,99,0.00,,,0.24,,2013-04-15 22:42:00,
2013-04-15 18:52:00,51.0,51.0,30.12,ENE,65,1.0,5.0,99,0.00,,,0.24,,2013-04-15 22:52:00,
2013-04-15 19:02:00,51.0,51.0,30.13,ENE,71,0.0,4.0,99,0.00,,,0.24,,2013-04-15 23:02:00,
2013-04-15 19:12:00,51.0,51.0,30.13,ENE,71,0.0,4.0,99,0.00,,,0.24,,2013-04-15 23:12:00,
2013-04-15 19:22:00,51.0,51.0,30.13,ENE,61,0.0,3.0,99,0.00,,,0.24,,2013-04-15 23:22:00,
2013-04-15 19:32:00,50.0,50.0,30.13,ENE,74,1.0,4.0,99,0.00,,,0.24,,2013-04-15 23:32:00,
2013-04-15 19:42:00,50.0,50.0,30.13,ENE,74,1.0,4.0,99,0.00,,,0.24,,2013-04-15 23:42:00,
2013-04-15 19:52:00,50.0,50.0,30.14,NNE,15,1.0,6.0,99,0.00,,,0.24,,2013-04-15 23:52:00,
2013-04-15 20:02:00,50.0,50.0,30.14,NE,44,1.0,5.0,99,0.00,,,0.24,,2013-04-16 00:02:00,
2013-04-15 20:12:00,50.0,50.0,30.14,NE,44,1.0,5.0,99,0.00,,,0.24,,2013-04-16 00:12:00,
2013-04-15 20:22:00,50.0,50.0,30.14,NE,34,1.0,4.0,99,0.00,,,0.24,,2013-04-16 00:22:00,
2013-04-15 20:32:00,50.0,50.0,30.15,NNE,32,4.0,6.0,99,0.00,,,0.24,,2013-04-16 00:32:00,
2013-04-15 20:42:00,50.0,50.0,30.15,NNE,32,4.0,6.0,99,0.00,,,0.24,,2013-04-16 00:42:00,
2013-04-15 20:52:00,50.0,50.0,30.15,NNE,14,3.0,6.0,99,0.00,,,0.24,,2013-04-16 00:52:00,
2013-04-15 21:02:00,50.0,50.0,30.16,ENE,57,1.0,5.0,99,0.00,,,0.24,,2013-04-16 01:02:00,
2013-04-15 21:12:00,50.0,50.0,30.16,ENE,57,1.0,5.0,99,0.00,,,0.24,,2013-04-16 01:12:00,
2013-04-15 21:22:00,50.0,50.0,30.17,NE,46,1.0,5.0,99,0.00,,,0.24,,2013-04-16 01:22:00,
2013-04-15 21:32:00,50.0,50.0,30.17,NE,35,1.0,7.0,99,0.00,,,0.24,,2013-04-16 01:32:00,
2013-04-15 21:42:00,50.0,50.0,30.17,NE,35,1.0,7.0,99,0.00,,,0.24,,2013-04-16 01:42:00,
2013-04-15 21:52:00,50.0,50.0,30.18,NNE,20,2.0,5.0,99,0.00,,,0.24,,2013-04-16 01:52:00,
2013-04-15 22:02:00,49.0,49.0,30.19,NE,34,2.0,7.0,99,0.00,,,0.24,,2013-04-16 02:02:00,
2013-04-15 22:12:00,49.0,49.0,30.19,NE,34,2.0,7.0,99,0.00,,,0.24,,2013-04-16 02:12:00,
2013-04-15 22:22:00,49.0,49.0,30.19,NE,50,1.0,5.0,99,0.00,,,0.24,,2013-04-16 02:22:00,
2013-04-15 22:32:00,50.0,50.0,30.19,ENE,67,2.0,6.0,99,0.00,,,0.24,,2013-04-16 02:32:00,
2013-04-15 22:42:00,50.0,50.0,30.19,ENE,67,2.0,6.0,99,0.00,,,0.24,,2013-04-16 02:42:00,
2013-04-15 22:52:00,50.0,50.0,30.19,ENE,75,2.0,6.0,99,0.00,,,0.24,,2013-04-16 02:52:00,
2013-04-15 23:02:00,50.0,50.0,30.20,East,88,3.0,5.0,99,0.00,,,0.24,,2013-04-16 03:02:00,
2013-04-15 23:12:00,50.0,50.0,30.20,East,88,3.0,5.0,99,0.00,,,0.24,,2013-04-16 03:12:00,
2013-04-15 23:22:00,50.0,50.0,30.20,ESE,107,3.0,7.0,99,0.00,,,0.24,,2013-04-16 03:22:00,
2013-04-15 23:33:00,50.0,50.0,30.20,SE,128,3.0,6.0,99,0.00,,,0.24,,2013-04-16 03:33:00,
2013-04-15 23:43:00,50.0,50.0,30.20,SE,128,3.0,6.0,99,0.00,,,0.24,,2013-04-16 03:43:00,
2013-04-15 23:53:00,50.0,50.0,30.20,ESE,107,1.0,5.0,99,0.00,,,0.24,,2013-04-16 03:53:00,